• In Netherlands
  • List of Countries
  • For 7 days
  • Water Temperature
  • Satellite Maps
  • Weather Map
  • Weather Widgets
  • user-avatar
    Login

    Hourly Weather Zhlobin

    Today, 23 May, Tuesday

    Time Temperature Precipitation Wind Pressure Humidity
    00:00 +14°C° 0 mm 1 mps 749 mmHg 68%
    01:00 +13°C° 0 mm 1 mps 749 mmHg 69%
    02:00 +13°C° 0 mm 1 mps 749 mmHg 70%
    03:00 +13°C° 0 mm 1 mps 749 mmHg 74%
    04:00 +13°C° 0 mm 1 mps 749 mmHg 78%
    05:00 +12°C° 0 mm 1 mps 749 mmHg 82%
    06:00 +14°C° 0 mm 1 mps 749 mmHg 76%
    07:00 +16°C° 0 mm 1 mps 749 mmHg 70%
    08:00 +19°C° 0 mm 1 mps 749 mmHg 64%
    09:00 +19°C° 0.1 mm 2 mps 749 mmHg 59%
    10:00 +21°C° 0.1 mm 2 mps 749 mmHg 54%
    11:00 +22°C° 0.1 mm 3 mps 749 mmHg 48%
    12:00 +22°C° 0 mm 3 mps 749 mmHg 44%
    13:00 +24°C° 0 mm 3 mps 749 mmHg 40%
    14:00 +24°C° 0 mm 3 mps 748 mmHg 36%
    15:00 +24°C° 0 mm 3 mps 748 mmHg 38%
    16:00 +24°C° 0 mm 3 mps 748 mmHg 39%
    17:00 +23°C° 0 mm 2 mps 748 mmHg 40%
    18:00 +20°C° 0 mm 2 mps 748 mmHg 49%
    19:00 +17°C° 0 mm 2 mps 748 mmHg 58%
    20:00 +15°C° 0 mm 1 mps 748 mmHg 67%
    21:00 +14°C° 0 mm 1 mps 748 mmHg 69%
    22:00 +13°C° 0 mm 1 mps 748 mmHg 71%
    23:00 +13°C° 0 mm 1 mps 748 mmHg 73%

    Tomorrow, 24 May, Wednesday

    Time Temperature Precipitation Wind Pressure Humidity
    00:00 +13°C° 0.1 mm 1 mps 748 mmHg 74%
    01:00 +14°C° 0.1 mm 1 mps 748 mmHg 76%
    02:00 +14°C° 0.1 mm 1 mps 748 mmHg 77%
    03:00 +14°C° 0.4 mm 2 mps 747 mmHg 83%
    04:00 +14°C° 0.4 mm 2 mps 747 mmHg 88%
    05:00 +14°C° 0.4 mm 2 mps 747 mmHg 94%
    06:00 +15°C° 0.6 mm 2 mps 747 mmHg 93%
    07:00 +16°C° 0.6 mm 3 mps 747 mmHg 92%
    08:00 +17°C° 0.6 mm 3 mps 747 mmHg 91%
    09:00 +17°C° 0.9 mm 3 mps 747 mmHg 88%
    10:00 +18°C° 0.9 mm 4 mps 747 mmHg 85%
    11:00 +18°C° 0.9 mm 4 mps 747 mmHg 83%
    12:00 +18°C° 0.5 mm 4 mps 747 mmHg 82%
    13:00 +19°C° 0.5 mm 4 mps 747 mmHg 80%
    14:00 +19°C° 0.5 mm 4 mps 746 mmHg 79%
    15:00 +18°C° 0.4 mm 3 mps 746 mmHg 80%
    16:00 +18°C° 0.4 mm 3 mps 746 mmHg 82%
    17:00 +18°C° 0.4 mm 2 mps 746 mmHg 83%
    18:00 +17°C° 0.7 mm 2 mps 746 mmHg 87%
    19:00 +16°C° 0.7 mm 2 mps 746 mmHg 92%
    20:00 +15°C° 0.7 mm 1 mps 746 mmHg 96%
    21:00 +14°C° 0.1 mm 1 mps 746 mmHg 96%
    22:00 +13°C° 0.1 mm 1 mps 746 mmHg 96%
    23:00 +13°C° 0.1 mm 1 mps 746 mmHg 96%

    Day after tomorrow, 25 May, Thursday

    Time Temperature Precipitation Wind Pressure Humidity
    00:00 +12°C° 0.2 mm 1 mps 746 mmHg 95%
    01:00 +12°C° 0.2 mm 1 mps 746 mmHg 95%
    02:00 +12°C° 0.2 mm 1 mps 746 mmHg 95%
    03:00 +12°C° 0.8 mm 1 mps 746 mmHg 95%
    04:00 +12°C° 0.8 mm 1 mps 746 mmHg 95%
    05:00 +13°C° 0.8 mm 1 mps 745 mmHg 95%
    06:00 +14°C° 0.5 mm 1 mps 746 mmHg 92%
    07:00 +15°C° 0.5 mm 1 mps 746 mmHg 90%
    08:00 +16°C° 0.5 mm 2 mps 746 mmHg 88%
    09:00 +16°C° 0.8 mm 2 mps 746 mmHg 84%
    10:00 +17°C° 0.8 mm 2 mps 746 mmHg 80%
    11:00 +17°C° 0.8 mm 3 mps 746 mmHg 77%
    12:00 +17°C° 0.7 mm 3 mps 746 mmHg 79%
    13:00 +16°C° 0.7 mm 3 mps 746 mmHg 81%
    14:00 +16°C° 0.7 mm 3 mps 745 mmHg 83%
    15:00 +16°C° 0.1 mm 2 mps 745 mmHg 83%
    16:00 +16°C° 0.1 mm 2 mps 745 mmHg 82%
    17:00 +16°C° 0.1 mm 2 mps 745 mmHg 82%
    18:00 +16°C° 0.4 mm 2 mps 745 mmHg 87%
    19:00 +15°C° 0.4 mm 2 mps 745 mmHg 92%
    20:00 +14°C° 0.4 mm 2 mps 745 mmHg 96%
    21:00 +14°C° 0.3 mm 2 mps 745 mmHg 97%
    22:00 +14°C° 0.3 mm 2 mps 745 mmHg 97%
    23:00 +13°C° 0.3 mm 2 mps 745 mmHg 98%

    26 May, Friday

    Time Temperature Precipitation Wind Pressure Humidity
    00:00 +13°C° 0.2 mm 2 mps 745 mmHg 98%
    01:00 +13°C° 0.2 mm 2 mps 745 mmHg 98%
    02:00 +13°C° 0.2 mm 2 mps 745 mmHg 98%
    03:00 +13°C° 0.5 mm 2 mps 745 mmHg 98%
    04:00 +13°C° 0.5 mm 2 mps 744 mmHg 98%
    05:00 +13°C° 0.5 mm 2 mps 744 mmHg 98%
    06:00 +14°C° 0.1 mm 2 mps 744 mmHg 97%
    07:00 +15°C° 0.1 mm 2 mps 745 mmHg 95%
    08:00 +14°C° 0.1 mm 3 mps 745 mmHg 94%
    09:00 +16°C° 0.4 mm 2 mps 745 mmHg 92%
    10:00 +16°C° 0.4 mm 2 mps 745 mmHg 90%
    11:00 +17°C° 0.4 mm 2 mps 745 mmHg 88%
    12:00 +17°C° 0.3 mm 2 mps 745 mmHg 87%
    13:00 +17°C° 0.3 mm 2 mps 745 mmHg 86%
    14:00 +18°C° 0.3 mm 2 mps 745 mmHg 85%
    15:00 +17°C° 0.8 mm 2 mps 745 mmHg 89%
    16:00 +18°C° 0.8 mm 1 mps 745 mmHg 92%
    17:00 +16°C° 0.8 mm 1 mps 745 mmHg 95%
    18:00 +16°C° 0.9 mm 1 mps 745 mmHg 96%
    19:00 +15°C° 0.9 mm 1 mps 745 mmHg 97%
    20:00 +15°C° 0.9 mm 1 mps 745 mmHg 98%
    21:00 +15°C° 0.7 mm 1 mps 745 mmHg 98%
    22:00 +14°C° 0.7 mm 1 mps 745 mmHg 98%
    23:00 +14°C° 0.7 mm 1 mps 745 mmHg 98%

    27 May, Saturday

    Time Temperature Precipitation Wind Pressure Humidity
    00:00 +14°C° 0.2 mm 1 mps 745 mmHg 98%
    01:00 +14°C° 0.2 mm 1 mps 745 mmHg 98%
    02:00 +13°C° 0.2 mm 2 mps 745 mmHg 98%
    03:00 +13°C° 0.2 mm 2 mps 746 mmHg 98%
    04:00 +13°C° 0.2 mm 2 mps 746 mmHg 98%
    05:00 +13°C° 0.2 mm 2 mps 746 mmHg 97%
    06:00 +13°C° 0.2 mm 2 mps 746 mmHg 94%
    07:00 +13°C° 0.2 mm 3 mps 747 mmHg 91%
    08:00 +13°C° 0.2 mm 3 mps 747 mmHg 88%
    09:00 +16°C° 0.1 mm 3 mps 747 mmHg 80%
    10:00 +17°C° 0.1 mm 3 mps 747 mmHg 72%
    11:00 +18°C° 0.1 mm 3 mps 748 mmHg 63%
    12:00 +19°C° 0.2 mm 3 mps 748 mmHg 62%
    13:00 +19°C° 0.2 mm 3 mps 748 mmHg 61%
    14:00 +20°C° 0.2 mm 3 mps 748 mmHg 59%
    15:00 +19°C° 0.4 mm 3 mps 748 mmHg 65%
    16:00 +19°C° 0.4 mm 3 mps 748 mmHg 71%
    17:00 +18°C° 0.4 mm 3 mps 748 mmHg 77%
    18:00 +17°C° 0.3 mm 3 mps 748 mmHg 83%
    19:00 +14°C° 0.3 mm 3 mps 748 mmHg 88%
    20:00 +14°C° 0.3 mm 2 mps 749 mmHg 94%
    21:00 +12°C° 0.2 mm 3 mps 749 mmHg 95%
    22:00 +12°C° 0.2 mm 3 mps 750 mmHg 96%
    23:00 +11°C° 0.2 mm 3 mps 750 mmHg 97%

    28 May, Sunday

    Time Temperature Precipitation Wind Pressure Humidity
    00:00 +11°C° 0 mm 3 mps 750 mmHg 97%
    01:00 +10°C° 0 mm 3 mps 750 mmHg 97%
    02:00 +10°C° 0 mm 3 mps 751 mmHg 96%
    03:00 +9°C° 0 mm 3 mps 751 mmHg 96%
    04:00 +8°C° 0 mm 3 mps 752 mmHg 95%
    05:00 +8°C° 0 mm 3 mps 752 mmHg 94%
    06:00 +8°C° 0 mm 4 mps 753 mmHg 86%
    07:00 +8°C° 0 mm 4 mps 753 mmHg 79%
    08:00 +10°C° 0 mm 4 mps 754 mmHg 72%
    09:00 +12°C° 0 mm 4 mps 754 mmHg 61%
    10:00 +13°C° 0 mm 4 mps 754 mmHg 50%
    11:00 +14°C° 0 mm 5 mps 754 mmHg 40%
    12:00 +14°C° 0 mm 5 mps 754 mmHg 38%
    13:00 +15°C° 0 mm 5 mps 754 mmHg 37%
    14:00 +15°C° 0 mm 5 mps 754 mmHg 36%
    15:00 +14°C° 0 mm 5 mps 755 mmHg 38%
    16:00 +14°C° 0 mm 5 mps 755 mmHg 40%
    17:00 +14°C° 0 mm 5 mps 755 mmHg 42%
    18:00 +12°C° 0 mm 4 mps 755 mmHg 48%
    19:00 +11°C° 0 mm 3 mps 756 mmHg 55%
    20:00 +9°C° 0 mm 3 mps 756 mmHg 61%
    21:00 +8°C° 0 mm 3 mps 757 mmHg 64%
    22:00 +7°C° 0 mm 2 mps 757 mmHg 67%
    23:00 +6°C° 0 mm 2 mps 757 mmHg 70%
    Show more